Time,TemperatureF,DewpointF,PressureIn,WindDirection,WindDirectionDegrees,WindSpeedMPH,WindSpeedGustMPH,Humidity,HourlyPrecipIn,Conditions,Clouds,dailyrainin,SoftwareType,DateUTC
2013-07-14 00:01:00,67.0,63.3,30.21,East,96,1.0,1.0,88,0.00,,CLR,0.00,VWS V13.01,2013-07-14 04:01:00,
2013-07-14 00:03:00,67.2,63.5,30.21,East,96,2.0,2.0,88,0.00,,CLR,0.00,VWS V13.01,2013-07-14 04:03:00,
2013-07-14 00:08:00,67.7,64.0,30.21,SE,125,3.0,5.0,88,0.00,,CLR,0.00,VWS V13.01,2013-07-14 04:08:00,
2013-07-14 00:13:00,68.3,64.6,30.22,SE,125,2.0,4.0,88,0.00,,CLR,0.00,VWS V13.01,2013-07-14 04:13:00,
2013-07-14 00:18:00,68.8,64.4,30.21,SE,125,2.0,5.0,86,0.00,,CLR,0.00,VWS V13.01,2013-07-14 04:18:00,
2013-07-14 00:23:00,69.2,64.8,30.22,ESE,115,1.0,5.0,86,0.00,,CLR,0.00,VWS V13.01,2013-07-14 04:23:00,
2013-07-14 00:28:00,68.9,63.2,30.22,ESE,115,1.0,2.0,82,0.00,,CLR,0.00,VWS V13.01,2013-07-14 04:28:00,
2013-07-14 00:33:00,67.6,61.9,30.22,NE,36,0.0,2.0,82,0.00,,CLR,0.00,VWS V13.01,2013-07-14 04:33:00,
2013-07-14 00:38:00,66.6,62.0,30.21,NE,36,0.0,1.0,85,0.00,,CLR,0.00,VWS V13.01,2013-07-14 04:38:00,
2013-07-14 00:43:00,65.9,61.6,30.22,NE,36,0.0,1.0,86,0.00,,CLR,0.00,VWS V13.01,2013-07-14 04:43:00,
2013-07-14 00:48:00,65.3,61.3,30.22,NE,36,0.0,1.0,87,0.00,,CLR,0.00,VWS V13.01,2013-07-14 04:48:00,
2013-07-14 00:53:00,64.8,61.2,30.22,NE,36,1.0,1.0,88,0.00,,CLR,0.00,VWS V13.01,2013-07-14 04:53:00,
2013-07-14 00:58:00,64.8,61.8,30.22,NE,36,0.0,1.0,90,0.00,,CLR,0.00,VWS V13.01,2013-07-14 04:58:00,
2013-07-14 01:03:00,65.0,62.0,30.22,NE,36,0.0,1.0,90,0.00,,CLR,0.00,VWS V13.01,2013-07-14 05:03:00,
2013-07-14 01:08:00,65.1,61.8,30.22,NE,36,1.0,1.0,89,0.00,,CLR,0.00,VWS V13.01,2013-07-14 05:08:00,
2013-07-14 01:13:00,65.6,62.9,30.22,East,86,2.0,2.0,91,0.00,,CLR,0.00,VWS V13.01,2013-07-14 05:13:00,
2013-07-14 01:18:00,66.1,62.1,30.22,East,86,2.0,2.0,87,0.00,,CLR,0.00,VWS V13.01,2013-07-14 05:18:00,
2013-07-14 01:23:00,65.4,61.4,30.22,ENE,73,0.0,2.0,87,0.00,,CLR,0.00,VWS V13.01,2013-07-14 05:23:00,
2013-07-14 01:28:00,65.1,61.8,30.22,ENE,73,0.0,2.0,89,0.00,,CLR,0.00,VWS V13.01,2013-07-14 05:28:00,
2013-07-14 01:33:00,64.8,61.5,30.22,ENE,73,1.0,1.0,89,0.00,,CLR,0.00,VWS V13.01,2013-07-14 05:33:00,
2013-07-14 01:38:00,64.5,61.2,30.22,ENE,68,0.0,2.0,89,0.00,,CLR,0.00,VWS V13.01,2013-07-14 05:38:00,
2013-07-14 01:43:00,64.0,60.7,30.22,ENE,67,1.0,3.0,89,0.00,,CLR,0.00,VWS V13.01,2013-07-14 05:43:00,
2013-07-14 01:48:00,63.4,60.4,30.22,ENE,67,0.0,1.0,90,0.00,,CLR,0.00,VWS V13.01,2013-07-14 05:48:00,
2013-07-14 01:54:00,63.2,60.2,30.22,ENE,67,0.0,1.0,90,0.00,,CLR,0.00,VWS V13.01,2013-07-14 05:54:00,
2013-07-14 01:59:00,63.1,60.4,30.22,ENE,67,0.0,0.0,91,0.00,,CLR,0.00,VWS V13.01,2013-07-14 05:59:00,
2013-07-14 02:04:00,63.0,60.3,30.22,ENE,67,0.0,0.0,91,0.00,,CLR,0.00,VWS V13.01,2013-07-14 06:04:00,
2013-07-14 02:09:00,62.8,60.1,30.22,ENE,67,1.0,1.0,91,0.00,,CLR,0.00,VWS V13.01,2013-07-14 06:09:00,
2013-07-14 02:14:00,62.5,59.8,30.22,ENE,67,3.0,3.0,91,0.00,,CLR,0.00,VWS V13.01,2013-07-14 06:14:00,
2013-07-14 02:19:00,62.2,59.5,30.22,NE,51,2.0,3.0,91,0.00,,CLR,0.00,VWS V13.01,2013-07-14 06:19:00,
2013-07-14 02:24:00,62.1,59.8,30.22,NE,46,1.0,3.0,92,0.00,,CLR,0.00,VWS V13.01,2013-07-14 06:24:00,
2013-07-14 02:29:00,61.9,59.5,30.22,NE,44,2.0,3.0,92,0.00,,CLR,0.00,VWS V13.01,2013-07-14 06:29:00,
2013-07-14 02:34:00,61.6,59.3,30.22,NE,35,2.0,3.0,92,0.00,,CLR,0.00,VWS V13.01,2013-07-14 06:34:00,
2013-07-14 02:39:00,61.4,59.4,30.22,NE,35,2.0,3.0,93,0.00,,CLR,0.00,VWS V13.01,2013-07-14 06:39:00,
2013-07-14 02:44:00,61.4,59.7,30.22,NE,35,1.0,3.0,94,0.00,,CLR,0.00,VWS V13.01,2013-07-14 06:44:00,
2013-07-14 02:49:00,61.4,59.7,30.22,NE,35,3.0,3.0,94,0.00,,CLR,0.00,VWS V13.01,2013-07-14 06:49:00,
2013-07-14 02:54:00,61.3,59.6,30.22,NE,35,2.0,3.0,94,0.00,,CLR,0.00,VWS V13.01,2013-07-14 06:54:00,
2013-07-14 02:59:00,61.3,59.6,30.22,NE,35,0.0,2.0,94,0.00,,CLR,0.00,VWS V13.01,2013-07-14 06:59:00,
2013-07-14 03:04:00,61.2,59.5,30.23,NNE,31,4.0,4.0,94,0.00,,CLR,0.00,VWS V13.01,2013-07-14 07:04:00,
2013-07-14 03:09:00,61.1,59.4,30.23,NNE,31,1.0,4.0,94,0.00,,CLR,0.00,VWS V13.01,2013-07-14 07:09:00,
2013-07-14 03:14:00,61.3,59.9,30.23,NNE,31,0.0,2.0,95,0.00,,CLR,0.00,VWS V13.01,2013-07-14 07:14:00,
2013-07-14 03:19:00,61.3,59.6,30.23,NNE,31,1.0,1.0,94,0.00,,CLR,0.00,VWS V13.01,2013-07-14 07:19:00,
2013-07-14 03:24:00,61.2,59.5,30.23,NNE,31,0.0,2.0,94,0.00,,CLR,0.00,VWS V13.01,2013-07-14 07:24:00,
2013-07-14 03:29:00,61.2,59.5,30.23,NNE,32,0.0,3.0,94,0.00,,CLR,0.00,VWS V13.01,2013-07-14 07:29:00,
2013-07-14 03:34:00,61.3,59.9,30.23,NNE,32,0.0,1.0,95,0.00,,CLR,0.00,VWS V13.01,2013-07-14 07:34:00,
2013-07-14 03:39:00,61.5,60.1,30.23,NNE,32,0.0,2.0,95,0.00,,CLR,0.00,VWS V13.01,2013-07-14 07:39:00,
2013-07-14 03:44:00,61.5,60.1,30.23,NNE,32,0.0,2.0,95,0.00,,CLR,0.00,VWS V13.01,2013-07-14 07:44:00,
2013-07-14 03:49:00,61.5,60.1,30.23,NNE,32,1.0,1.0,95,0.00,,CLR,0.00,VWS V13.01,2013-07-14 07:49:00,
2013-07-14 03:54:00,61.5,60.1,30.23,NNE,32,0.0,2.0,95,0.00,,CLR,0.00,VWS V13.01,2013-07-14 07:54:00,
2013-07-14 03:59:00,61.4,59.7,30.23,NNE,32,0.0,2.0,94,0.00,,CLR,0.00,VWS V13.01,2013-07-14 07:59:00,
2013-07-14 04:04:00,61.2,59.5,30.24,NNE,32,2.0,3.0,94,0.00,,CLR,0.00,VWS V13.01,2013-07-14 08:04:00,
2013-07-14 04:09:00,61.0,59.3,30.23,NNE,32,2.0,3.0,94,0.00,,CLR,0.00,VWS V13.01,2013-07-14 08:09:00,
2013-07-14 04:15:00,61.0,59.3,30.24,NNE,32,2.0,3.0,94,0.00,,CLR,0.00,VWS V13.01,2013-07-14 08:15:00,
2013-07-14 04:20:00,60.9,59.2,30.24,NNE,32,3.0,3.0,94,0.00,,CLR,0.00,VWS V13.01,2013-07-14 08:20:00,
2013-07-14 04:25:00,60.9,59.5,30.24,NNE,32,3.0,3.0,95,0.00,,CLR,0.00,VWS V13.01,2013-07-14 08:25:00,
2013-07-14 04:30:00,60.9,59.5,30.24,NNE,32,2.0,3.0,95,0.00,,CLR,0.00,VWS V13.01,2013-07-14 08:30:00,
2013-07-14 04:35:00,61.0,59.6,30.24,NNE,32,2.0,3.0,95,0.00,,CLR,0.00,VWS V13.01,2013-07-14 08:35:00,
2013-07-14 04:40:00,60.9,59.5,30.24,NNE,32,2.0,3.0,95,0.00,,CLR,0.00,VWS V13.01,2013-07-14 08:40:00,
2013-07-14 04:45:00,60.9,59.5,30.24,NNE,32,2.0,3.0,95,0.00,,CLR,0.00,VWS V13.01,2013-07-14 08:45:00,
2013-07-14 04:50:00,60.8,59.4,30.24,NNE,32,3.0,3.0,95,0.00,,CLR,0.00,VWS V13.01,2013-07-14 08:50:00,
2013-07-14 04:55:00,60.7,59.3,30.24,NNE,32,2.0,3.0,95,0.00,,CLR,0.00,VWS V13.01,2013-07-14 08:55:00,
2013-07-14 05:00:00,60.7,59.3,30.24,NNE,32,1.0,3.0,95,0.00,,CLR,0.00,VWS V13.01,2013-07-14 09:00:00,
2013-07-14 05:05:00,60.7,59.3,30.24,NNE,32,1.0,2.0,95,0.00,,CLR,0.00,VWS V13.01,2013-07-14 09:05:00,
2013-07-14 05:10:00,60.6,59.2,30.24,NNE,32,2.0,3.0,95,0.00,,CLR,0.00,VWS V13.01,2013-07-14 09:10:00,
2013-07-14 05:15:00,60.6,59.2,30.24,NNE,32,0.0,2.0,95,0.00,,CLR,0.00,VWS V13.01,2013-07-14 09:15:00,
2013-07-14 05:20:00,60.6,59.2,30.24,NNE,32,2.0,2.0,95,0.00,,CLR,0.00,VWS V13.01,2013-07-14 09:20:00,
2013-07-14 05:25:00,60.5,59.1,30.24,NNE,32,2.0,3.0,95,0.00,,CLR,0.00,VWS V13.01,2013-07-14 09:25:00,
2013-07-14 05:30:00,60.4,59.0,30.25,NNE,32,0.0,2.0,95,0.00,,CLR,0.00,VWS V13.01,2013-07-14 09:30:00,
2013-07-14 05:35:00,60.3,58.9,30.25,NNE,32,1.0,2.0,95,0.00,,CLR,0.00,VWS V13.01,2013-07-14 09:35:00,
2013-07-14 05:40:00,60.3,59.2,30.25,NNE,32,2.0,3.0,96,0.00,,CLR,0.00,VWS V13.01,2013-07-14 09:40:00,
2013-07-14 05:45:00,60.3,59.2,30.25,NNE,32,2.0,3.0,96,0.00,,CLR,0.00,VWS V13.01,2013-07-14 09:45:00,
2013-07-14 05:50:00,60.2,58.8,30.25,NNE,32,3.0,3.0,95,0.00,,CLR,0.00,VWS V13.01,2013-07-14 09:50:00,
2013-07-14 05:55:00,60.0,58.6,30.25,NNE,32,3.0,3.0,95,0.00,,CLR,0.00,VWS V13.01,2013-07-14 09:55:00,
2013-07-14 06:00:00,59.9,58.8,30.25,NNE,32,3.0,3.0,96,0.00,,CLR,0.00,VWS V13.01,2013-07-14 10:00:00,
2013-07-14 06:05:00,59.8,58.7,30.25,NNE,32,1.0,3.0,96,0.00,,CLR,0.00,VWS V13.01,2013-07-14 10:05:00,
2013-07-14 06:10:00,59.8,58.7,30.25,NNE,32,2.0,2.0,96,0.00,,CLR,0.00,VWS V13.01,2013-07-14 10:10:00,
2013-07-14 06:15:00,59.8,58.7,30.25,NNE,32,2.0,2.0,96,0.00,,CLR,0.00,VWS V13.01,2013-07-14 10:15:00,
2013-07-14 06:20:00,59.9,58.8,30.26,NNE,32,0.0,2.0,96,0.00,,CLR,0.00,VWS V13.01,2013-07-14 10:20:00,
2013-07-14 06:25:00,59.9,58.8,30.26,NNE,32,0.0,1.0,96,0.00,,CLR,0.00,VWS V13.01,2013-07-14 10:25:00,
2013-07-14 06:31:00,59.9,58.8,30.26,NNE,32,0.0,0.0,96,0.00,,CLR,0.00,VWS V13.01,2013-07-14 10:31:00,
2013-07-14 06:36:00,60.0,58.9,30.26,NNE,32,0.0,0.0,96,0.00,,CLR,0.00,VWS V13.01,2013-07-14 10:36:00,
2013-07-14 06:41:00,60.1,59.0,30.26,NNE,32,0.0,0.0,96,0.00,,CLR,0.00,VWS V13.01,2013-07-14 10:41:00,
2013-07-14 06:46:00,60.1,59.0,30.26,NNE,32,0.0,1.0,96,0.00,,CLR,0.00,VWS V13.01,2013-07-14 10:46:00,
2013-07-14 06:51:00,60.2,59.1,30.26,NNE,32,1.0,1.0,96,0.00,,CLR,0.00,VWS V13.01,2013-07-14 10:51:00,
2013-07-14 06:56:00,60.4,59.5,30.25,NNE,32,0.0,1.0,97,0.00,,CLR,0.00,VWS V13.01,2013-07-14 10:56:00,
2013-07-14 07:01:00,60.7,59.8,30.26,NNE,32,0.0,1.0,97,0.00,,CLR,0.00,VWS V13.01,2013-07-14 11:01:00,
2013-07-14 07:06:00,60.9,60.0,30.26,NNE,32,1.0,2.0,97,0.00,,CLR,0.00,VWS V13.01,2013-07-14 11:06:00,
2013-07-14 07:11:00,61.2,60.3,30.26,NNE,32,1.0,2.0,97,0.00,,CLR,0.00,VWS V13.01,2013-07-14 11:11:00,
2013-07-14 07:16:00,61.4,60.5,30.26,NNE,32,1.0,1.0,97,0.00,,CLR,0.00,VWS V13.01,2013-07-14 11:16:00,
2013-07-14 07:21:00,61.7,60.8,30.26,NNE,32,0.0,2.0,97,0.00,,CLR,0.00,VWS V13.01,2013-07-14 11:21:00,
2013-07-14 07:26:00,62.0,61.1,30.26,NNE,32,0.0,1.0,97,0.00,,CLR,0.00,VWS V13.01,2013-07-14 11:26:00,
2013-07-14 07:31:00,62.4,61.5,30.26,NNE,32,0.0,1.0,97,0.00,,CLR,0.00,VWS V13.01,2013-07-14 11:31:00,
2013-07-14 07:36:00,62.7,61.8,30.26,NNE,32,0.0,1.0,97,0.00,,CLR,0.00,VWS V13.01,2013-07-14 11:36:00,
2013-07-14 07:41:00,63.0,62.1,30.26,NNE,32,0.0,1.0,97,0.00,,CLR,0.00,VWS V13.01,2013-07-14 11:41:00,
2013-07-14 07:46:00,63.3,62.4,30.26,NNE,32,0.0,1.0,97,0.00,,CLR,0.00,VWS V13.01,2013-07-14 11:46:00,
2013-07-14 07:51:00,63.7,62.5,30.26,NNE,32,0.0,0.0,96,0.00,,CLR,0.00,VWS V13.01,2013-07-14 11:51:00,
2013-07-14 07:56:00,64.3,63.4,30.26,NNE,32,0.0,0.0,97,0.00,,CLR,0.00,VWS V13.01,2013-07-14 11:56:00,
2013-07-14 08:01:00,65.0,63.8,30.26,NNE,32,0.0,0.0,96,0.00,,CLR,0.00,VWS V13.01,2013-07-14 12:01:00,
2013-07-14 08:06:00,66.1,64.9,30.26,NNE,32,0.0,0.0,96,0.00,,CLR,0.00,VWS V13.01,2013-07-14 12:06:00,
2013-07-14 08:11:00,66.8,65.0,30.26,NNE,32,0.0,0.0,94,0.00,,CLR,0.00,VWS V13.01,2013-07-14 12:11:00,
2013-07-14 08:16:00,67.6,65.8,30.26,NNE,32,0.0,1.0,94,0.00,,CLR,0.00,VWS V13.01,2013-07-14 12:16:00,
2013-07-14 08:21:00,68.5,66.1,30.26,NNE,32,0.0,0.0,92,0.00,,CLR,0.00,VWS V13.01,2013-07-14 12:21:00,
2013-07-14 08:26:00,69.2,66.5,30.26,NNE,32,0.0,0.0,91,0.00,,CLR,0.00,VWS V13.01,2013-07-14 12:26:00,
2013-07-14 08:31:00,69.7,66.3,30.26,NNE,32,0.0,0.0,89,0.00,,CLR,0.00,VWS V13.01,2013-07-14 12:31:00,
2013-07-14 08:36:00,70.2,66.5,30.26,NNE,32,0.0,0.0,88,0.00,,CLR,0.00,VWS V13.01,2013-07-14 12:36:00,
2013-07-14 08:41:00,70.3,66.2,30.26,NNE,32,0.0,0.0,87,0.00,,CLR,0.00,VWS V13.01,2013-07-14 12:41:00,
2013-07-14 08:46:00,70.4,66.3,30.26,NNE,32,0.0,0.0,87,0.00,,CLR,0.00,VWS V13.01,2013-07-14 12:46:00,
2013-07-14 08:52:00,70.6,66.9,30.26,NNE,32,0.0,1.0,88,0.00,,CLR,0.00,VWS V13.01,2013-07-14 12:52:00,
2013-07-14 08:57:00,70.4,66.7,30.26,NNE,32,0.0,0.0,88,0.00,,CLR,0.00,VWS V13.01,2013-07-14 12:57:00,
2013-07-14 09:02:00,70.2,66.8,30.26,NNE,32,0.0,0.0,89,0.00,,CLR,0.00,VWS V13.01,2013-07-14 13:02:00,
2013-07-14 09:07:00,70.0,66.6,30.26,NNE,32,0.0,0.0,89,0.00,,CLR,0.00,VWS V13.01,2013-07-14 13:07:00,
2013-07-14 09:12:00,70.0,66.6,30.26,NNE,32,0.0,0.0,89,0.00,,CLR,0.00,VWS V13.01,2013-07-14 13:12:00,
2013-07-14 09:17:00,70.4,67.3,30.26,NNE,32,0.0,0.0,90,0.00,,CLR,0.00,VWS V13.01,2013-07-14 13:17:00,
2013-07-14 09:22:00,71.2,67.5,30.26,NNE,32,0.0,1.0,88,0.00,,CLR,0.00,VWS V13.01,2013-07-14 13:22:00,
2013-07-14 09:27:00,71.6,67.5,30.26,NNE,32,1.0,1.0,87,0.00,,CLR,0.00,VWS V13.01,2013-07-14 13:27:00,
2013-07-14 09:32:00,71.7,67.6,30.26,NNE,32,0.0,1.0,87,0.00,,CLR,0.00,VWS V13.01,2013-07-14 13:32:00,
2013-07-14 09:37:00,71.9,67.2,30.26,NNE,32,0.0,0.0,85,0.00,,CLR,0.00,VWS V13.01,2013-07-14 13:37:00,
2013-07-14 09:42:00,72.3,67.5,30.26,NNE,32,0.0,0.0,85,0.00,,CLR,0.00,VWS V13.01,2013-07-14 13:42:00,
2013-07-14 09:47:00,73.0,67.9,30.26,NNE,32,1.0,1.0,84,0.00,,CLR,0.00,VWS V13.01,2013-07-14 13:47:00,
2013-07-14 09:52:00,73.0,67.9,30.26,ENE,72,1.0,3.0,84,0.00,,CLR,0.00,VWS V13.01,2013-07-14 13:52:00,
2013-07-14 09:57:00,72.8,68.0,30.26,ENE,72,0.0,2.0,85,0.00,,CLR,0.00,VWS V13.01,2013-07-14 13:57:00,
2013-07-14 10:02:00,72.9,68.1,30.26,ENE,72,1.0,2.0,85,0.00,,CLR,0.00,VWS V13.01,2013-07-14 14:02:00,
2013-07-14 10:07:00,73.1,68.0,30.26,ENE,72,2.0,2.0,84,0.00,,CLR,0.00,VWS V13.01,2013-07-14 14:07:00,
2013-07-14 10:12:00,73.0,68.2,30.26,ENE,72,2.0,2.0,85,0.00,,CLR,0.00,VWS V13.01,2013-07-14 14:12:00,
2013-07-14 10:17:00,72.8,68.0,30.26,East,86,3.0,3.0,85,0.00,,CLR,0.00,VWS V13.01,2013-07-14 14:17:00,
2013-07-14 10:22:00,72.6,68.2,30.26,East,86,3.0,5.0,86,0.00,,CLR,0.00,VWS V13.01,2013-07-14 14:22:00,
2013-07-14 10:27:00,72.6,68.2,30.26,East,86,1.0,3.0,86,0.00,,CLR,0.00,VWS V13.01,2013-07-14 14:27:00,
2013-07-14 10:32:00,72.8,68.4,30.26,East,86,1.0,2.0,86,0.00,,CLR,0.00,VWS V13.01,2013-07-14 14:32:00,
2013-07-14 10:37:00,73.3,68.9,30.27,East,86,1.0,1.0,86,0.00,,CLR,0.00,VWS V13.01,2013-07-14 14:37:00,
2013-07-14 10:42:00,73.9,68.8,30.27,East,86,0.0,1.0,84,0.00,,CLR,0.00,VWS V13.01,2013-07-14 14:42:00,
2013-07-14 10:47:00,74.5,68.3,30.26,East,86,0.0,1.0,81,0.00,,CLR,0.00,VWS V13.01,2013-07-14 14:47:00,
2013-07-14 10:52:00,75.1,68.9,30.27,East,86,0.0,1.0,81,0.00,,CLR,0.00,VWS V13.01,2013-07-14 14:52:00,
2013-07-14 10:57:00,75.7,69.5,30.27,East,86,1.0,1.0,81,0.00,,CLR,0.00,VWS V13.01,2013-07-14 14:57:00,
2013-07-14 11:02:00,76.3,69.3,30.27,East,86,1.0,2.0,79,0.00,,CLR,0.00,VWS V13.01,2013-07-14 15:02:00,
2013-07-14 11:08:00,76.1,69.1,30.27,East,86,2.0,2.0,79,0.00,,CLR,0.00,VWS V13.01,2013-07-14 15:08:00,
2013-07-14 11:13:00,75.7,69.1,30.27,East,86,2.0,2.0,80,0.00,,CLR,0.00,VWS V13.01,2013-07-14 15:13:00,
2013-07-14 11:18:00,76.0,69.8,30.26,East,86,2.0,2.0,81,0.00,,CLR,0.00,VWS V13.01,2013-07-14 15:18:00,
2013-07-14 11:23:00,76.2,69.6,30.27,East,86,2.0,3.0,80,0.00,,CLR,0.00,VWS V13.01,2013-07-14 15:23:00,
2013-07-14 11:28:00,75.8,69.2,30.27,East,86,2.0,3.0,80,0.00,,CLR,0.00,VWS V13.01,2013-07-14 15:28:00,
2013-07-14 11:33:00,75.7,69.5,30.27,East,96,2.0,3.0,81,0.00,,CLR,0.00,VWS V13.01,2013-07-14 15:33:00,
2013-07-14 11:38:00,75.9,69.7,30.27,East,96,2.0,3.0,81,0.00,,CLR,0.00,VWS V13.01,2013-07-14 15:38:00,
2013-07-14 11:43:00,76.0,69.4,30.27,East,96,3.0,3.0,80,0.00,,CLR,0.00,VWS V13.01,2013-07-14 15:43:00,
2013-07-14 11:48:00,75.1,68.9,30.27,East,97,3.0,5.0,81,0.00,,CLR,0.00,VWS V13.01,2013-07-14 15:48:00,
2013-07-14 11:53:00,74.7,69.6,30.27,East,97,3.0,5.0,84,0.00,,CLR,0.00,VWS V13.01,2013-07-14 15:53:00,
2013-07-14 11:58:00,75.0,69.8,30.27,East,97,2.0,3.0,84,0.00,,CLR,0.00,VWS V13.01,2013-07-14 15:58:00,
2013-07-14 12:03:00,74.9,69.4,30.27,East,97,3.0,3.0,83,0.00,,FEW047,0.00,VWS V13.01,2013-07-14 16:03:00,
2013-07-14 12:08:00,74.5,69.3,30.27,East,97,2.0,3.0,84,0.00,,FEW047,0.00,VWS V13.01,2013-07-14 16:08:00,
2013-07-14 12:13:00,74.3,69.5,30.27,East,97,3.0,3.0,85,0.00,,FEW047,0.00,VWS V13.01,2013-07-14 16:13:00,
2013-07-14 12:18:00,74.3,69.5,30.27,East,97,3.0,5.0,85,0.00,,FEW047,0.00,VWS V13.01,2013-07-14 16:18:00,
2013-07-14 12:23:00,74.4,69.6,30.27,East,97,5.0,5.0,85,0.00,,FEW047,0.00,VWS V13.01,2013-07-14 16:23:00,
2013-07-14 12:28:00,74.2,69.1,30.27,East,97,3.0,5.0,84,0.00,,FEW047,0.00,VWS V13.01,2013-07-14 16:28:00,
2013-07-14 12:33:00,74.1,69.3,30.27,East,97,2.0,5.0,85,0.00,,FEW047,0.00,VWS V13.01,2013-07-14 16:33:00,
2013-07-14 12:38:00,74.3,69.5,30.27,East,97,2.0,3.0,85,0.00,,FEW047,0.00,VWS V13.01,2013-07-14 16:38:00,
2013-07-14 12:43:00,74.5,69.7,30.27,East,97,2.0,3.0,85,0.00,,FEW047,0.00,VWS V13.01,2013-07-14 16:43:00,
2013-07-14 12:48:00,74.6,69.8,30.27,East,97,2.0,5.0,85,0.00,,FEW047,0.00,VWS V13.01,2013-07-14 16:48:00,
2013-07-14 12:53:00,74.7,69.6,30.27,East,97,3.0,3.0,84,0.00,,FEW047,0.00,VWS V13.01,2013-07-14 16:53:00,
2013-07-14 12:58:00,74.9,70.1,30.26,East,99,3.0,3.0,85,0.00,,FEW047,0.00,VWS V13.01,2013-07-14 16:58:00,
2013-07-14 13:03:00,75.1,69.9,30.26,East,99,3.0,5.0,84,0.00,,FEW050,0.00,VWS V13.01,2013-07-14 17:03:00,
2013-07-14 13:08:00,74.9,69.7,30.26,East,99,3.0,5.0,84,0.00,,FEW050,0.00,VWS V13.01,2013-07-14 17:08:00,
2013-07-14 13:13:00,74.7,69.9,30.26,ESE,104,3.0,5.0,85,0.00,,FEW050,0.00,VWS V13.01,2013-07-14 17:13:00,
2013-07-14 13:18:00,74.7,69.9,30.26,ESE,104,3.0,4.0,85,0.00,,FEW050,0.00,VWS V13.01,2013-07-14 17:18:00,
2013-07-14 13:23:00,74.8,70.0,30.26,ESE,104,4.0,4.0,85,0.00,,FEW050,0.00,VWS V13.01,2013-07-14 17:23:00,
2013-07-14 13:28:00,74.8,70.0,30.26,ESE,106,5.0,5.0,85,0.00,,FEW050,0.00,VWS V13.01,2013-07-14 17:28:00,
2013-07-14 13:33:00,74.6,70.1,30.26,ESE,107,5.0,7.0,86,0.00,,FEW050,0.00,VWS V13.01,2013-07-14 17:33:00,
2013-07-14 13:38:00,74.5,70.0,30.26,ESE,107,3.0,5.0,86,0.00,,FEW050,0.00,VWS V13.01,2013-07-14 17:38:00,
2013-07-14 13:43:00,74.8,70.3,30.26,ESE,107,4.0,5.0,86,0.00,,FEW050,0.00,VWS V13.01,2013-07-14 17:43:00,
2013-07-14 13:48:00,74.9,70.1,30.26,ESE,107,3.0,5.0,85,0.00,,FEW050,0.00,VWS V13.01,2013-07-14 17:48:00,
2013-07-14 13:54:00,74.9,70.4,30.26,ESE,107,3.0,4.0,86,0.00,,FEW050,0.00,VWS V13.01,2013-07-14 17:54:00,
2013-07-14 13:59:00,74.8,70.3,30.26,ESE,107,3.0,4.0,86,0.00,,FEW050,0.00,VWS V13.01,2013-07-14 17:59:00,
2013-07-14 14:04:00,74.8,70.3,30.26,ESE,104,4.0,6.0,86,0.00,,CLR,0.00,VWS V13.01,2013-07-14 18:04:00,
2013-07-14 14:09:00,74.9,70.4,30.26,ESE,105,5.0,5.0,86,0.00,,CLR,0.00,VWS V13.01,2013-07-14 18:09:00,
2013-07-14 14:14:00,74.7,70.2,30.26,ESE,105,5.0,7.0,86,0.00,,CLR,0.00,VWS V13.01,2013-07-14 18:14:00,
2013-07-14 14:19:00,74.6,70.1,30.25,ESE,105,5.0,7.0,86,0.00,,CLR,0.00,VWS V13.01,2013-07-14 18:19:00,
2013-07-14 14:24:00,74.5,70.4,30.25,ESE,105,5.0,7.0,87,0.00,,CLR,0.00,VWS V13.01,2013-07-14 18:24:00,
2013-07-14 14:29:00,74.6,70.1,30.25,ESE,105,5.0,7.0,86,0.00,,CLR,0.00,VWS V13.01,2013-07-14 18:29:00,
2013-07-14 14:34:00,74.6,70.1,30.25,ESE,105,5.0,7.0,86,0.00,,CLR,0.00,VWS V13.01,2013-07-14 18:34:00,
2013-07-14 14:39:00,74.7,70.2,30.25,ESE,103,5.0,7.0,86,0.00,,CLR,0.00,VWS V13.01,2013-07-14 18:39:00,
2013-07-14 14:44:00,74.7,70.6,30.25,ESE,103,7.0,7.0,87,0.00,,CLR,0.00,VWS V13.01,2013-07-14 18:44:00,
2013-07-14 14:49:00,74.8,70.7,30.25,East,90,7.0,7.0,87,0.00,,CLR,0.00,VWS V13.01,2013-07-14 18:49:00,
2013-07-14 14:54:00,74.9,70.8,30.25,ESE,102,5.0,7.0,87,0.00,,CLR,0.00,VWS V13.01,2013-07-14 18:54:00,
2013-07-14 14:59:00,75.0,70.9,30.25,ESE,102,7.0,7.0,87,0.00,,CLR,0.00,VWS V13.01,2013-07-14 18:59:00,
2013-07-14 15:04:00,75.1,70.6,30.25,East,101,7.0,7.0,86,0.00,,CLR,0.00,VWS V13.01,2013-07-14 19:04:00,
2013-07-14 15:09:00,75.3,70.8,30.24,East,100,7.0,7.0,86,0.00,,CLR,0.00,VWS V13.01,2013-07-14 19:09:00,
2013-07-14 15:14:00,75.7,71.2,30.24,East,98,7.0,7.0,86,0.00,,CLR,0.00,VWS V13.01,2013-07-14 19:14:00,
2013-07-14 15:19:00,75.9,71.1,30.24,East,98,7.0,7.0,85,0.00,,CLR,0.00,VWS V13.01,2013-07-14 19:19:00,
2013-07-14 15:24:00,76.0,71.2,30.24,East,98,6.0,7.0,85,0.00,,CLR,0.00,VWS V13.01,2013-07-14 19:24:00,
2013-07-14 15:29:00,76.1,70.9,30.24,East,99,6.0,7.0,84,0.00,,CLR,0.00,VWS V13.01,2013-07-14 19:29:00,
2013-07-14 15:34:00,76.3,71.1,30.24,East,99,5.0,7.0,84,0.00,,CLR,0.00,VWS V13.01,2013-07-14 19:34:00,
2013-07-14 15:39:00,76.6,71.4,30.24,East,97,5.0,6.0,84,0.00,,CLR,0.00,VWS V13.01,2013-07-14 19:39:00,
2013-07-14 15:44:00,76.4,70.9,30.24,ESE,103,4.0,7.0,83,0.00,,CLR,0.00,VWS V13.01,2013-07-14 19:44:00,
2013-07-14 15:50:00,76.0,70.8,30.24,ESE,104,5.0,5.0,84,0.00,,CLR,0.00,VWS V13.01,2013-07-14 19:50:00,
2013-07-14 15:55:00,75.9,71.1,30.23,ESE,105,5.0,7.0,85,0.00,,CLR,0.00,VWS V13.01,2013-07-14 19:55:00,
2013-07-14 16:00:00,75.8,71.0,30.23,ESE,105,5.0,5.0,85,0.00,,CLR,0.00,VWS V13.01,2013-07-14 20:00:00,
2013-07-14 16:05:00,75.8,71.0,30.23,ESE,107,5.0,7.0,85,0.00,,CLR,0.00,VWS V13.01,2013-07-14 20:05:00,
2013-07-14 16:10:00,75.8,71.0,30.23,ESE,105,5.0,7.0,85,0.00,,CLR,0.00,VWS V13.01,2013-07-14 20:10:00,
2013-07-14 16:15:00,76.0,71.2,30.23,ESE,103,4.0,7.0,85,0.00,,CLR,0.00,VWS V13.01,2013-07-14 20:15:00,
2013-07-14 16:20:00,76.0,71.5,30.23,ESE,110,5.0,7.0,86,0.00,,CLR,0.00,VWS V13.01,2013-07-14 20:20:00,
2013-07-14 16:25:00,76.2,71.4,30.23,ESE,110,7.0,7.0,85,0.00,,CLR,0.00,VWS V13.01,2013-07-14 20:25:00,
2013-07-14 16:30:00,76.2,71.4,30.23,ESE,113,5.0,7.0,85,0.00,,CLR,0.00,VWS V13.01,2013-07-14 20:30:00,
2013-07-14 16:35:00,76.3,71.1,30.23,ESE,113,7.0,7.0,84,0.00,,CLR,0.00,VWS V13.01,2013-07-14 20:35:00,
2013-07-14 16:40:00,76.3,71.5,30.23,ESE,111,5.0,8.0,85,0.00,,CLR,0.00,VWS V13.01,2013-07-14 20:40:00,
2013-07-14 16:45:00,76.1,71.3,30.23,ESE,113,8.0,8.0,85,0.00,,CLR,0.00,VWS V13.01,2013-07-14 20:45:00,
2013-07-14 16:50:00,75.9,71.1,30.23,ESE,109,8.0,9.0,85,0.00,,CLR,0.00,VWS V13.01,2013-07-14 20:50:00,
2013-07-14 16:55:00,75.7,71.2,30.23,ESE,108,7.0,8.0,86,0.00,,CLR,0.00,VWS V13.01,2013-07-14 20:55:00,
2013-07-14 17:00:00,75.6,71.5,30.23,ESE,108,8.0,8.0,87,0.00,,CLR,0.00,VWS V13.01,2013-07-14 21:00:00,
2013-07-14 17:05:00,75.7,71.2,30.23,ESE,108,7.0,9.0,86,0.00,,CLR,0.00,VWS V13.01,2013-07-14 21:05:00,
2013-07-14 17:10:00,75.7,71.2,30.23,ESE,106,8.0,9.0,86,0.00,,CLR,0.00,VWS V13.01,2013-07-14 21:10:00,
2013-07-14 17:15:00,75.7,71.2,30.22,East,101,7.0,9.0,86,0.00,,CLR,0.00,VWS V13.01,2013-07-14 21:15:00,
2013-07-14 17:20:00,75.7,70.9,30.22,ESE,105,7.0,8.0,85,0.00,,CLR,0.00,VWS V13.01,2013-07-14 21:20:00,
2013-07-14 17:25:00,75.8,71.0,30.22,ESE,109,8.0,9.0,85,0.00,,CLR,0.00,VWS V13.01,2013-07-14 21:25:00,
2013-07-14 17:30:00,75.9,71.1,30.22,ESE,111,8.0,9.0,85,0.00,,CLR,0.00,VWS V13.01,2013-07-14 21:30:00,
2013-07-14 17:35:00,75.9,71.1,30.22,ESE,111,8.0,9.0,85,0.00,,CLR,0.00,VWS V13.01,2013-07-14 21:35:00,
2013-07-14 17:40:00,75.8,71.0,30.22,ESE,108,7.0,9.0,85,0.00,,CLR,0.00,VWS V13.01,2013-07-14 21:40:00,
2013-07-14 17:45:00,75.7,71.2,30.22,ESE,106,7.0,9.0,86,0.00,,CLR,0.00,VWS V13.01,2013-07-14 21:45:00,
2013-07-14 17:50:00,75.6,71.1,30.22,East,100,8.0,9.0,86,0.00,,CLR,0.00,VWS V13.01,2013-07-14 21:50:00,
2013-07-14 17:55:00,75.7,71.2,30.22,East,95,7.0,9.0,86,0.00,,CLR,0.00,VWS V13.01,2013-07-14 21:55:00,
2013-07-14 18:01:00,75.7,71.2,30.22,ESE,105,8.0,9.0,86,0.00,,CLR,0.00,VWS V13.01,2013-07-14 22:01:00,
2013-07-14 18:06:00,75.6,71.5,30.22,ESE,105,7.0,9.0,87,0.00,,CLR,0.00,VWS V13.01,2013-07-14 22:06:00,
2013-07-14 18:11:00,75.7,71.6,30.22,East,101,7.0,9.0,87,0.00,,CLR,0.00,VWS V13.01,2013-07-14 22:11:00,
2013-07-14 18:16:00,75.8,71.3,30.22,East,101,7.0,8.0,86,0.00,,CLR,0.00,VWS V13.01,2013-07-14 22:16:00,
2013-07-14 18:21:00,76.0,71.5,30.22,East,101,6.0,8.0,86,0.00,,CLR,0.00,VWS V13.01,2013-07-14 22:21:00,
2013-07-14 18:26:00,75.9,71.4,30.21,East,96,7.0,8.0,86,0.00,,CLR,0.00,VWS V13.01,2013-07-14 22:26:00,
2013-07-14 18:31:00,75.9,71.1,30.21,ESE,105,8.0,8.0,85,0.00,,CLR,0.00,VWS V13.01,2013-07-14 22:31:00,
2013-07-14 18:36:00,75.8,70.6,30.22,ESE,105,8.0,8.0,84,0.00,,CLR,0.00,VWS V13.01,2013-07-14 22:36:00,
2013-07-14 18:41:00,75.8,71.0,30.22,ESE,104,8.0,8.0,85,0.00,,CLR,0.00,VWS V13.01,2013-07-14 22:41:00,
2013-07-14 18:46:00,75.7,71.2,30.22,East,100,8.0,10.0,86,0.00,,CLR,0.00,VWS V13.01,2013-07-14 22:46:00,
2013-07-14 18:51:00,75.7,71.6,30.21,East,99,7.0,9.0,87,0.00,,CLR,0.00,VWS V13.01,2013-07-14 22:51:00,
2013-07-14 18:56:00,75.9,71.4,30.22,East,98,7.0,8.0,86,0.00,,CLR,0.00,VWS V13.01,2013-07-14 22:56:00,
2013-07-14 19:01:00,76.0,70.8,30.22,ESE,105,7.0,9.0,84,0.00,,CLR,0.00,VWS V13.01,2013-07-14 23:01:00,
2013-07-14 19:06:00,75.9,70.7,30.22,East,101,7.0,9.0,84,0.00,,CLR,0.00,VWS V13.01,2013-07-14 23:06:00,
2013-07-14 19:11:00,75.8,71.0,30.21,ESE,102,8.0,8.0,85,0.00,,CLR,0.00,VWS V13.01,2013-07-14 23:11:00,
2013-07-14 19:16:00,75.9,70.7,30.21,ESE,104,8.0,9.0,84,0.00,,CLR,0.00,VWS V13.01,2013-07-14 23:16:00,
2013-07-14 19:21:00,75.9,71.1,30.21,East,101,7.0,9.0,85,0.00,,CLR,0.00,VWS V13.01,2013-07-14 23:21:00,
2013-07-14 19:26:00,75.8,71.0,30.21,ESE,108,5.0,8.0,85,0.00,,CLR,0.00,VWS V13.01,2013-07-14 23:26:00,
2013-07-14 19:31:00,75.8,71.0,30.21,East,100,6.0,8.0,85,0.00,,CLR,0.00,VWS V13.01,2013-07-14 23:31:00,
2013-07-14 19:36:00,75.7,70.9,30.21,ESE,102,8.0,9.0,85,0.00,,CLR,0.00,VWS V13.01,2013-07-14 23:36:00,
2013-07-14 19:41:00,75.8,69.9,30.21,ENE,65,3.0,8.0,82,0.00,,CLR,0.00,VWS V13.01,2013-07-14 23:41:00,
2013-07-14 19:46:00,76.4,69.4,30.21,ENE,78,5.0,8.0,79,0.00,,CLR,0.00,VWS V13.01,2013-07-14 23:46:00,
2013-07-14 19:51:00,76.9,68.8,30.21,East,95,8.0,9.0,76,0.00,,CLR,0.00,VWS V13.01,2013-07-14 23:51:00,
2013-07-14 19:56:00,76.9,69.9,30.21,East,100,6.0,8.0,79,0.00,,CLR,0.00,VWS V13.01,2013-07-14 23:56:00,
2013-07-14 20:01:00,76.4,70.1,30.21,ESE,105,7.0,9.0,81,0.00,,CLR,0.00,VWS V13.01,2013-07-15 00:01:00,
2013-07-14 20:06:00,75.8,70.3,30.21,East,100,6.0,8.0,83,0.00,,CLR,0.00,VWS V13.01,2013-07-15 00:06:00,
2013-07-14 20:11:00,75.5,70.7,30.21,ESE,105,7.0,7.0,85,0.00,,CLR,0.00,VWS V13.01,2013-07-15 00:11:00,
2013-07-14 20:16:00,75.3,69.4,30.21,ESE,106,7.0,7.0,82,0.00,,CLR,0.00,VWS V13.01,2013-07-15 00:16:00,
2013-07-14 20:21:00,75.5,69.6,30.21,East,101,6.0,7.0,82,0.00,,CLR,0.00,VWS V13.01,2013-07-15 00:21:00,
2013-07-14 20:26:00,75.5,69.3,30.21,ESE,103,1.0,7.0,81,0.00,,CLR,0.00,VWS V13.01,2013-07-15 00:26:00,
2013-07-14 20:31:00,75.5,67.4,30.21,ENE,63,1.0,3.0,76,0.00,,CLR,0.00,VWS V13.01,2013-07-15 00:31:00,
2013-07-14 20:36:00,75.8,67.3,30.21,East,79,1.0,3.0,75,0.00,,CLR,0.00,VWS V13.01,2013-07-15 00:36:00,
2013-07-14 20:41:00,75.9,67.4,30.21,East,97,5.0,5.0,75,0.00,,CLR,0.00,VWS V13.01,2013-07-15 00:41:00,
2013-07-14 20:46:00,75.8,67.7,30.21,East,83,3.0,6.0,76,0.00,,CLR,0.00,VWS V13.01,2013-07-15 00:46:00,
2013-07-14 20:51:00,75.7,68.7,30.21,ENE,69,2.0,8.0,79,0.00,,CLR,0.00,VWS V13.01,2013-07-15 00:51:00,
2013-07-14 20:56:00,75.5,69.6,30.21,East,99,5.0,7.0,82,0.00,,CLR,0.00,VWS V13.01,2013-07-15 00:56:00,
2013-07-14 21:02:00,75.2,69.7,30.20,East,100,5.0,7.0,83,0.00,,CLR,0.00,VWS V13.01,2013-07-15 01:02:00,
2013-07-14 21:07:00,74.9,69.4,30.21,East,98,5.0,7.0,83,0.00,,CLR,0.00,VWS V13.01,2013-07-15 01:07:00,
2013-07-14 21:12:00,74.7,69.2,30.21,ENE,62,0.0,5.0,83,0.00,,CLR,0.00,VWS V13.01,2013-07-15 01:12:00,
2013-07-14 21:17:00,74.5,69.0,30.21,ENE,62,0.0,1.0,83,0.00,,CLR,0.00,VWS V13.01,2013-07-15 01:17:00,
2013-07-14 21:22:00,74.4,68.9,30.21,ENE,62,0.0,0.0,83,0.00,,CLR,0.00,VWS V13.01,2013-07-15 01:22:00,
2013-07-14 21:27:00,74.4,69.3,30.21,ENE,62,0.0,1.0,84,0.00,,CLR,0.00,VWS V13.01,2013-07-15 01:27:00,
2013-07-14 21:32:00,74.2,69.1,30.21,East,93,1.0,2.0,84,0.00,,CLR,0.00,VWS V13.01,2013-07-15 01:32:00,
2013-07-14 21:37:00,74.1,69.3,30.21,East,93,0.0,1.0,85,0.00,,CLR,0.00,VWS V13.01,2013-07-15 01:37:00,
2013-07-14 21:42:00,74.0,68.9,30.21,East,93,0.0,1.0,84,0.00,,CLR,0.00,VWS V13.01,2013-07-15 01:42:00,
2013-07-14 21:47:00,73.9,68.8,30.21,East,93,0.0,0.0,84,0.00,,CLR,0.00,VWS V13.01,2013-07-15 01:47:00,
2013-07-14 21:52:00,73.8,69.3,30.21,East,93,1.0,2.0,86,0.00,,CLR,0.00,VWS V13.01,2013-07-15 01:52:00,
2013-07-14 21:57:00,73.7,69.6,30.22,East,93,0.0,1.0,87,0.00,,CLR,0.00,VWS V13.01,2013-07-15 01:57:00,
2013-07-14 22:02:00,73.6,69.2,30.22,East,94,0.0,2.0,86,0.00,,-RA,0.00,VWS V13.01,2013-07-15 02:02:00,
2013-07-14 22:07:00,73.4,69.3,30.22,East,94,0.0,0.0,87,0.00,,-RA,0.00,VWS V13.01,2013-07-15 02:07:00,
2013-07-14 22:12:00,73.3,69.2,30.22,East,94,0.0,0.0,87,0.00,,-RA,0.00,VWS V13.01,2013-07-15 02:12:00,
2013-07-14 22:17:00,73.1,68.7,30.22,East,94,0.0,2.0,86,0.00,,-RA,0.00,VWS V13.01,2013-07-15 02:17:00,
2013-07-14 22:22:00,73.1,69.0,30.22,East,88,3.0,3.0,87,0.00,,-RA,0.00,VWS V13.01,2013-07-15 02:22:00,
2013-07-14 22:27:00,73.2,69.4,30.22,East,88,2.0,3.0,88,0.00,,-RA,0.00,VWS V13.01,2013-07-15 02:27:00,
2013-07-14 22:32:00,73.3,69.5,30.22,ESE,121,0.0,4.0,88,0.00,,-RA,0.00,VWS V13.01,2013-07-15 02:32:00,
2013-07-14 22:37:00,73.3,69.5,30.22,ESE,121,0.0,1.0,88,0.00,,-RA,0.00,VWS V13.01,2013-07-15 02:37:00,
2013-07-14 22:42:00,73.2,69.4,30.22,ESE,121,1.0,1.0,88,0.00,,-RA,0.00,VWS V13.01,2013-07-15 02:42:00,
2013-07-14 22:47:00,73.0,68.9,30.22,ESE,121,0.0,1.0,87,0.00,,-RA,0.00,VWS V13.01,2013-07-15 02:47:00,
2013-07-14 22:52:00,72.6,68.5,30.22,ENE,69,1.0,2.0,87,0.00,,-RA,0.00,VWS V13.01,2013-07-15 02:52:00,
2013-07-14 22:57:00,72.2,68.1,30.22,ENE,69,0.0,2.0,87,0.00,,-RA,0.00,VWS V13.01,2013-07-15 02:57:00,
2013-07-14 23:02:00,71.7,68.0,30.23,ENE,69,1.0,2.0,88,0.00,,CLR,0.00,VWS V13.01,2013-07-15 03:02:00,
2013-07-14 23:07:00,71.4,67.7,30.23,ENE,69,0.0,1.0,88,0.00,,CLR,0.00,VWS V13.01,2013-07-15 03:07:00,
2013-07-14 23:12:00,71.2,67.8,30.23,ENE,69,0.0,1.0,89,0.00,,CLR,0.00,VWS V13.01,2013-07-15 03:12:00,
2013-07-14 23:17:00,71.0,67.9,30.23,ENE,69,0.0,1.0,90,0.00,,CLR,0.00,VWS V13.01,2013-07-15 03:17:00,
2013-07-14 23:22:00,70.8,67.7,30.23,ENE,69,1.0,2.0,90,0.00,,CLR,0.00,VWS V13.01,2013-07-15 03:22:00,
2013-07-14 23:27:00,70.6,67.5,30.23,ENE,69,0.0,2.0,90,0.00,,CLR,0.00,VWS V13.01,2013-07-15 03:27:00,
2013-07-14 23:32:00,70.5,67.8,30.23,ENE,69,0.0,1.0,91,0.00,,CLR,0.00,VWS V13.01,2013-07-15 03:32:00,
2013-07-14 23:37:00,70.5,67.8,30.23,ENE,69,1.0,2.0,91,0.00,,CLR,0.00,VWS V13.01,2013-07-15 03:37:00,
2013-07-14 23:42:00,70.3,67.6,30.23,ENE,69,1.0,2.0,91,0.00,,CLR,0.00,VWS V13.01,2013-07-15 03:42:00,
2013-07-14 23:48:00,70.1,67.4,30.23,ENE,69,0.0,2.0,91,0.00,,CLR,0.00,VWS V13.01,2013-07-15 03:48:00,
2013-07-14 23:53:00,69.9,67.5,30.23,ENE,69,0.0,1.0,92,0.00,,CLR,0.00,VWS V13.01,2013-07-15 03:53:00,
2013-07-14 23:58:00,69.9,67.8,30.23,ENE,69,0.0,1.0,93,0.00,,CLR,0.00,VWS V13.01,2013-07-15 03:58:00,